"1997/01/01", 7.7, 8.1, 7.2
"1997/01/02", 7.8, 8.7, 7.5
"1997/01/03", 7.4, 7.8, 6.5
"1997/01/04", 6.5, 7.0, 5.9
"1997/01/05", 6.6, 7.6, 5.9
"1997/01/06", 6.6, 7.2, 6.0
"1997/01/07", 6.4, 6.7, 6.2
"1997/01/08", 6.1, 6.5, 5.6
"1997/01/09", 6.0, 6.8, 5.3
"1997/01/10", 6.0, 6.4, 5.5
"1997/01/11", 6.0, 7.1, 5.3
"1997/01/12", 5.8, 6.3, 5.3
"1997/01/13", 5.8, 6.5, 5.2
"1997/01/14", 5.8, 6.4, 5.3
"1997/01/15", 6.0, 6.8, 5.4
"1997/01/16", 5.4, 5.7, 4.9
"1997/01/17", 5.6, 6.6, 4.7
"1997/01/18", 5.7, 6.3, 5.3
"1997/01/19", 5.9, 7.0, 5.1
"1997/01/20", 5.8, 6.3, 5.4
"1997/01/21", 5.8, 6.6, 5.4
"1997/01/22", 4.6, 5.7, 3.8
"1997/01/23", 4.6, 5.4, 3.3
"1997/01/24", 4.7, 5.0, 4.4
"1997/01/25", 4.6, 5.5, 4.3
"1997/01/26", 4.5, 5.4, 4.0
"1997/01/27", 4.3, 5.0, 3.9
"1997/01/28", 4.7, 6.1, 4.1
"1997/01/29", 4.8, 5.5, 4.4
"1997/01/30", 4.6, 4.9, 4.1
"1997/01/31", 4.5, 5.3, 3.7
"1997/02/01", 4.7, 5.3, 4.2
"1997/02/02", 5.0, 6.0, 4.2
"1997/02/03", 5.0, 5.3, 4.7
"1997/02/04"," *"," *"," *"
"1997/02/05"," *"," *"," *"
"1997/02/06"," *"," *"," *"
"1997/02/07"," *"," *"," *"
"1997/02/08"," *"," *"," *"
"1997/02/09"," *"," *"," *"
"1997/02/10"," *"," *"," *"
"1997/02/11"," *"," *"," *"
"1997/02/12"," *"," *"," *"
"1997/02/13", 5.4, 6.0, 4.9
"1997/02/14", 5.5, 6.0, 5.0
"1997/02/15", 5.7, 6.4, 5.2
"1997/02/16", 5.8, 6.2, 5.5
"1997/02/17", 5.8, 6.5, 5.0
"1997/02/18", 6.0, 6.8, 5.7
"1997/02/19", 5.6, 6.2, 4.8
"1997/02/20", 5.4, 5.8, 4.6
"1997/02/21", 5.5, 6.1, 4.9
"1997/02/22", 4.3, 5.0, 3.2
"1997/02/23", 4.4, 4.8, 4.1
"1997/02/24", 4.9, 5.9, 3.9
"1997/02/25", 5.3, 6.1, 4.8
"1997/02/26", 6.2, 7.6, 5.2
"1997/02/27", 6.8, 8.5, 6.0
"1997/02/28", 6.7, 7.6, 6.2
"1997/03/01", 7.8, 9.4, 6.6
"1997/03/02", 7.3, 7.7, 6.9
"1997/03/03", 6.8, 6.9, 6.6
"1997/03/04", 6.7, 7.3, 6.0
"1997/03/05", 7.4, 8.6, 6.5
"1997/03/06", 7.5, 8.0, 6.8
"1997/03/07", 8.7, 9.9, 7.8
"1997/03/08", 8.9, 9.6, 8.4
"1997/03/09", 8.5, 9.1, 8.1
"1997/03/10", 8.7, 9.8, 8.1
"1997/03/11", 9.1, 9.8, 8.4
"1997/03/12", 9.7,10.7, 9.1
"1997/03/13", 9.3,10.0, 8.9
"1997/03/14",10.3,12.0, 9.0
"1997/03/15", 9.9,10.6, 9.3
"1997/03/16", 8.7, 9.4, 8.3
"1997/03/17", 8.7, 9.4, 8.2
"1997/03/18", 9.1, 9.9, 8.5
"1997/03/19", 9.1, 9.3, 8.9
"1997/03/20", 9.2,10.1, 8.8
"1997/03/21", 9.7,10.6, 8.7
"1997/03/22", 9.7,10.5, 9.4
"1997/03/23", 9.3, 9.4, 9.0
"1997/03/24", 9.2,10.0, 8.7
"1997/03/25", 9.4,10.2, 8.7
"1997/03/26",10.0,10.9, 9.2
"1997/03/27",10.0,10.2, 9.8
"1997/03/28",10.5,12.8, 9.4
"1997/03/29",11.0,11.6,10.4
"1997/03/30",11.7,12.4,11.2
"1997/03/31",11.3,11.7,10.8
"1997/04/01",11.8,13.1,10.9
"1997/04/02",11.9,12.2,11.6
"1997/04/03",11.8,11.9,11.7
"1997/04/04",12.6,13.7,11.8
"1997/04/05",12.6,12.9,12.4
"1997/04/06",12.6,12.8,12.4
"1997/04/07",12.6,12.8,12.3
"1997/04/08",13.3,15.4,12.4
"1997/04/09",14.4,16.5,13.2
"1997/04/10",14.2,15.6,13.5
"1997/04/11",13.9,15.1,13.2
"1997/04/12",13.6,14.6,12.8
"1997/04/13",14.2,15.3,13.4
"1997/04/14",14.6,15.5,13.8
"1997/04/15",14.0,14.2,13.5
"1997/04/16",13.5,14.4,13.0
"1997/04/17",13.8,14.6,13.3
"1997/04/18",14.5,15.5,13.3
"1997/04/19",14.3,14.9,14.1
"1997/04/20",14.4,15.1,13.9
"1997/04/21",14.6,15.1,14.1
"1997/04/22",15.1,15.9,14.6
"1997/04/23",14.5,15.2,13.9
"1997/04/24",15.3,18.2,13.6
"1997/04/25",15.5,17.4,14.4
"1997/04/26",16.1,19.3,14.3
"1997/04/27",15.8,16.5,15.4
"1997/04/28",16.0,16.7,15.8
"1997/04/29",17.2,19.2,15.6
"1997/04/30",16.4,17.2,15.6
"1997/05/01",17.0,18.1,16.1
"1997/05/02",18.1,19.3,17.2
"1997/05/03",17.8,18.4,17.4
"1997/05/04",17.3,17.6,17.1
"1997/05/05",18.1,19.2,17.2
"1997/05/06",18.4,19.3,17.9
"1997/05/07",18.9,19.6,18.3
"1997/05/08",19.6,20.5,18.7
"1997/05/09",19.1,19.8,18.4
"1997/05/10",18.5,18.8,18.2
"1997/05/11",18.6,19.0,18.2
"1997/05/12",19.0,19.4,18.6
"1997/05/13",19.1,20.0,18.5
"1997/05/14",18.8,18.9,18.7
"1997/05/15",18.9,19.2,18.7
"1997/05/16",20.1,22.6,18.8
"1997/05/17",20.1,20.8,19.5
"1997/05/18",20.2,20.9,19.3
"1997/05/19",20.1,20.6,19.6
"1997/05/20",19.1,19.6,18.8
"1997/05/21",19.5,21.3,18.6
"1997/05/22",18.8,19.6,18.3
"1997/05/23",18.4,18.6,18.1
"1997/05/24",18.1,18.3,17.9
"1997/05/25",18.7,19.9,18.0
"1997/05/26",19.2,20.5,18.4
"1997/05/27",19.2,20.2,18.4
"1997/05/28",20.0,21.7,18.9
"1997/05/29",20.0,20.3,19.7
"1997/05/30",20.7,23.0,19.6
"1997/05/31",20.5,21.3,20.1
"1997/06/01",21.6,23.4,20.3
"1997/06/02",21.9,22.3,21.1
"1997/06/03",22.0,22.6,21.4
"1997/06/04",21.5,22.0,21.3
"1997/06/05",22.5,24.8,21.0
"1997/06/06",21.7,22.4,21.1
"1997/06/07",22.4,25.5,20.6
"1997/06/08",21.2,21.8,20.6
"1997/06/09",20.4,20.6,20.2
"1997/06/10",21.6,23.7,20.2
"1997/06/11",21.3,21.7,20.8
"1997/06/12",21.1,21.7,20.5
"1997/06/13",21.8,24.3,20.7
"1997/06/14",21.8,22.7,21.1
"1997/06/15",22.6,24.0,21.7
"1997/06/16",22.2,22.7,21.6
"1997/06/17",21.6,21.9,21.3
"1997/06/18",21.5,21.7,21.3
"1997/06/19",22.3,23.9,21.3
"1997/06/20",21.8,22.2,21.6
"1997/06/21",22.3,23.8,21.5
"1997/06/22",22.8,24.0,22.0
"1997/06/23",22.5,22.8,22.3
"1997/06/24",23.6,25.9,22.0
"1997/06/25",24.3,26.3,22.7
"1997/06/26",24.1,24.7,23.4
"1997/06/27",25.2,26.6,23.8
"1997/06/28",25.3,25.6,24.9
"1997/06/29",25.0,26.5,24.4
"1997/06/30",25.3,27.4,23.8
"1997/07/01",25.4,26.3,24.6
"1997/07/02",25.4,26.0,24.8
"1997/07/03",26.6,28.6,25.0
"1997/07/04",26.7,29.0,25.6
"1997/07/05",26.3,27.2,25.4
"1997/07/06",26.8,27.5,25.8
"1997/07/07",27.3,28.6,26.7
"1997/07/08",27.0,27.9,26.2
"1997/07/09",27.2,27.9,26.4
"1997/07/10",25.9,26.8,25.3
"1997/07/11",25.1,25.3,24.8
"1997/07/12",24.7,24.9,24.3
"1997/07/13",24.7,25.4,24.2
"1997/07/14",25.5,28.0,24.4
"1997/07/15",26.6,28.5,25.0
"1997/07/16",26.9,28.5,25.7
"1997/07/17",25.7,26.9,24.8
"1997/07/18",25.1,25.8,24.6
"1997/07/19",25.8,28.4,24.5
"1997/07/20",25.7,26.9,24.8
"1997/07/21",26.1,27.5,24.9
"1997/07/22",26.2,27.5,25.4
"1997/07/23",26.1,26.6,25.8
"1997/07/24",26.5,27.8,25.7
"1997/07/25",26.9,27.9,26.0
"1997/07/26",26.6,27.0,26.4
"1997/07/27",27.1,28.4,26.1
"1997/07/28",27.4,27.8,27.2
"1997/07/29",27.4,28.1,27.0
"1997/07/30",26.9,27.3,26.6
"1997/07/31",27.3,28.5,26.3
"1997/08/01",27.2,28.0,26.7
"1997/08/02",28.7,31.9,26.8
"1997/08/03",28.9,30.0,27.9
"1997/08/04",28.6,30.4,27.5
"1997/08/05",27.5,28.6,26.9
"1997/08/06",27.5,28.3,26.7
"1997/08/07",28.3,30.5,27.0
"1997/08/08",27.7,28.4,27.2
"1997/08/09",27.6,28.6,26.8
"1997/08/10",27.7,28.9,26.9
"1997/08/11",27.8,28.2,27.2
"1997/08/12",27.8,28.6,27.3
"1997/08/13",27.7,28.6,27.2
"1997/08/14",26.6,27.2,26.1
"1997/08/15",25.5,26.1,24.6
"1997/08/16",24.5,24.8,24.0
"1997/08/17",24.2,24.6,23.9
"1997/08/18",25.0,27.3,23.6
"1997/08/19",25.2,25.8,24.7
"1997/08/20",25.3,26.0,24.9
"1997/08/21",25.8,27.1,24.6
"1997/08/22"," *"," *"," *"
"1997/08/23",27.6,29.0,26.4
"1997/08/24",28.0,29.9,26.8
"1997/08/25",27.0,27.8,26.4
"1997/08/26",26.0,26.4,25.7
"1997/08/27",26.7,28.3,25.5
"1997/08/28",26.8,28.1,25.9
"1997/08/29",26.7,27.8,25.9
"1997/08/30",27.6,29.8,26.2
"1997/08/31",27.0,27.7,26.5
"1997/09/01",27.2,28.0,26.5
"1997/09/02",27.3,27.9,26.9
"1997/09/03",27.4,28.0,27.0
"1997/09/04",27.2,27.9,26.8
"1997/09/05",26.4,26.8,26.1
"1997/09/06",26.4,27.4,25.7
"1997/09/07",26.4,27.0,26.0
"1997/09/08",26.3,27.0,25.9
"1997/09/09",25.7,25.9,25.5
"1997/09/10",26.2,28.6,25.5
"1997/09/11",26.0,26.6,25.5
"1997/09/12",25.7,25.9,25.2
"1997/09/13",24.4,25.2,23.7
"1997/09/14",23.8,24.1,23.4
"1997/09/15",22.9,23.6,22.5
"1997/09/16",22.0,22.6,21.6
"1997/09/17",22.2,23.2,21.2
"1997/09/18",22.6,22.9,22.4
"1997/09/19",22.7,23.4,22.4
"1997/09/20",22.5,23.0,22.2
"1997/09/21",21.9,22.2,21.7
"1997/09/22",21.8,22.3,21.3
"1997/09/23",21.4,21.8,21.0
"1997/09/24",21.0,21.4,20.6
"1997/09/25",20.6,20.8,20.3
"1997/09/26",20.3,20.5,20.0
"1997/09/27",20.2,20.5,19.8
"1997/09/28",20.4,21.6,19.5
"1997/09/29",20.8,22.0,19.7
"1997/09/30",20.9,22.9,19.7
"1997/10/01",20.4,21.2,19.9
"1997/10/02",20.1,20.5,19.6
"1997/10/03",20.2,20.9,19.8
"1997/10/04",20.4,20.9,19.9
"1997/10/05",20.7,22.3,19.9
"1997/10/06",20.5,21.1,20.0
"1997/10/07",20.1,20.4,19.9
"1997/10/08",20.1,21.6,18.8
"1997/10/09",19.6,20.4,19.0
"1997/10/10",19.8,20.6,19.4
"1997/10/11",19.8,20.8,19.2
"1997/10/12",19.4,20.7,18.8
"1997/10/13",19.4,20.7,18.5
"1997/10/14",19.0,19.4,18.7
"1997/10/15",19.5,21.0,18.5
"1997/10/16",19.1,20.5,18.1
"1997/10/17",18.7,18.8,18.4
"1997/10/18",19.0,19.8,18.3
"1997/10/19",18.8,19.4,18.5
"1997/10/20",18.8,19.5,18.2
"1997/10/21"," *"," *"," *"
"1997/10/22",18.5,18.9,18.2
"1997/10/23",19.1,20.3,18.1
"1997/10/24",19.3,20.1,18.5
"1997/10/25",19.3,20.1,18.8
"1997/10/26",18.8,19.4,18.2
"1997/10/27",18.0,18.7,16.6
"1997/10/28",17.6,18.9,16.0
"1997/10/29",17.2,17.8,16.8
"1997/10/30",17.2,18.5,16.5
"1997/10/31",16.7,17.2,16.4
"1997/11/01",16.0,16.4,15.4
"1997/11/02",16.0,17.2,15.0
"1997/11/03",16.3,17.4,15.6
"1997/11/04",16.4,16.8,16.0
"1997/11/05",16.4,17.1,15.8
"1997/11/06",16.5,17.9,15.4
"1997/11/07",16.1,17.6,15.4
"1997/11/08",15.3,15.7,15.0
"1997/11/09",15.3,16.1,14.7
"1997/11/10",15.1,15.9,14.6
"1997/11/11",15.1,16.3,14.4
"1997/11/12",15.2,16.1,14.6
"1997/11/13",15.0,15.4,14.6
"1997/11/14",14.6,14.9,14.4
"1997/11/15",14.8,15.6,14.4
"1997/11/16",14.7,15.1,14.5
"1997/11/17",14.5,14.7,14.4
"1997/11/18",14.3,14.9,13.3
"1997/11/19",14.2,15.6,13.5
"1997/11/20",13.4,13.8,13.1
"1997/11/21",13.2,13.4,12.8
"1997/11/22",13.6,13.9,13.3
"1997/11/23",13.5,13.8,13.1
"1997/11/24",13.4,14.6,12.6
"1997/11/25",13.3,14.0,12.8
"1997/11/26",13.1,13.7,12.9
"1997/11/27",14.5,15.8,13.7
"1997/11/28",14.0,14.2,13.7
"1997/11/29",13.2,13.7,12.8
"1997/11/30",13.9,14.4,13.4
"1997/12/01",13.1,13.6,12.5
"1997/12/02",12.4,12.7,11.2
"1997/12/03",10.7,11.9, 9.0
"1997/12/04",10.4,11.4, 9.1
"1997/12/05",10.3,10.9, 9.8
"1997/12/06",10.4,10.9, 9.9
"1997/12/07",10.8,11.2,10.4
"1997/12/08",11.1,11.3,10.9
"1997/12/09",11.2,11.5,10.9
"1997/12/10",11.0,11.5,10.3
"1997/12/11",10.4,11.3, 9.9
"1997/12/12", 9.6, 9.8, 9.5
"1997/12/13", 9.5, 9.9, 9.0
"1997/12/14", 8.9, 9.2, 8.4
"1997/12/15", 8.8, 9.2, 8.5
"1997/12/16", 9.0,10.0, 8.2
"1997/12/17", 8.7, 9.1, 8.4
"1997/12/18", 8.7, 9.4, 8.0
"1997/12/19", 9.1, 9.9, 8.4
"1997/12/20", 9.1, 9.4, 8.6
"1997/12/21", 9.0, 9.8, 8.6
"1997/12/22", 8.4, 8.7, 8.2
"1997/12/23", 7.8, 8.2, 7.6
"1997/12/24", 7.3, 7.7, 7.1
"1997/12/25", 7.1, 7.3, 6.8
"1997/12/26", 7.1, 7.3, 6.8
"1997/12/27", 7.3, 7.7, 7.2
"1997/12/28", 7.5, 8.4, 6.8
"1997/12/29", 7.4, 8.3, 7.0
"1997/12/30", 7.2, 7.4, 7.0
"1997/12/31", 7.2, 7.7, 6.2
